| time (UTC) | temp F | wind direction | speed MPH | gust MPH | rain 1hr in | rain 24hr in | rain mn in | humidity % | barometer mb |
| 20260831092306 | 77 | 158 | 4.0 | 10.0 | 0.00 | 0.00 | 0.00 | 69 | 1011.1 |
| 20260831091303 | 77 | 158 | 3.0 | 6.0 | 0.00 | 0.00 | 0.00 | 69 | 1011.1 |
| 20260831090404 | 77 | 180 | 2.0 | 3.0 | 0.00 | 0.00 | 0.00 | 68 | 1011.1 |
| 20260831085306 | 77 | 203 | 3.0 | 5.0 | 0.00 | 0.00 | 0.00 | 68 | 1011.1 |
| 20260831084308 | 78 | 158 | 3.0 | 4.0 | 0.00 | 0.00 | 0.00 | 67 | 1011.1 |
| 20260831083303 | 78 | 180 | 3.0 | 4.0 | 0.00 | 0.00 | 0.00 | 66 | 1011.2 |
| 20260831082323 | 78 | 180 | 2.0 | 5.0 | 0.00 | 0.00 | 0.00 | 66 | 1011.1 |
| 20260831081304 | 79 | 203 | 4.0 | 7.0 | 0.00 | 0.00 | 0.00 | 65 | 1011.1 |
| 20260831080303 | 79 | 203 | 5.0 | 9.0 | 0.00 | 0.00 | 0.00 | 65 | 1011.1 |
| 20260831075306 | 79 | 135 | 1.0 | 3.0 | 0.00 | 0.00 | 0.00 | 65 | 1011.0 |
| 20260831074303 | 79 | 180 | 2.0 | 6.0 | 0.00 | 0.00 | 0.00 | 64 | 1010.8 |
| 20260831073303 | 79 | 203 | 3.0 | 5.0 | 0.00 | 0.00 | 0.00 | 64 | 1010.8 |
| 20260831072306 | 79 | 158 | 1.0 | 4.0 | 0.00 | 0.00 | 0.00 | 64 | 1010.7 |
| 20260831071324 | 79 | 158 | 2.0 | 3.0 | 0.00 | 0.00 | 0.00 | 64 | 1010.6 |
| 20260831070303 | 79 | 180 | 3.0 | 6.0 | 0.00 | 0.00 | 0.00 | 63 | 1010.6 |
| 20260831065306 | 80 | 180 | 1.0 | 2.0 | 0.00 | 0.00 | 0.00 | 62 | 1010.5 |
| 20260831064323 | 80 | 158 | 1.0 | 2.0 | 0.00 | 0.00 | 0.00 | 62 | 1010.4 |
| 20260831063303 | 80 | 180 | 3.0 | 5.0 | 0.00 | 0.00 | 0.00 | 62 | 1010.3 |
| 20260831062305 | 80 | 180 | 1.0 | 2.0 | 0.00 | 0.00 | 0.00 | 62 | 1010.2 |
| 20260831061303 | 81 | 158 | 1.0 | 2.0 | 0.00 | 0.00 | 0.00 | 61 | 1010.1 |
| 20260831060303 | 81 | 180 | 3.0 | 7.0 | 0.00 | 0.00 | 0.00 | 60 | 1010.1 |
| 20260831055306 | 81 | 158 | 3.0 | 6.0 | 0.00 | 0.00 | 0.00 | 59 | 1010.1 |
| 20260831054303 | 82 | 158 | 3.0 | 4.0 | 0.00 | 0.00 | 0.00 | 59 | 1010.1 |
| 20260831053303 | 82 | 158 | 3.0 | 5.0 | 0.00 | 0.00 | 0.00 | 58 | 1010.0 |
| 20260831052306 | 82 | 158 | 3.0 | 5.0 | 0.00 | 0.00 | 0.00 | 58 | 1010.0 |
| 20260831051303 | 83 | 135 | 5.0 | 9.0 | 0.00 | 0.00 | 0.00 | 58 | 1010.0 |
| 20260831050303 | 83 | 158 | 5.0 | 10.0 | 0.00 | 0.00 | 0.00 | 57 | 1009.9 |
| 20260831045423 | 83 | 180 | 4.0 | 6.0 | 0.00 | 0.00 | 0.00 | 57 | 1009.8 |
| 20260831044404 | 83 | 158 | 4.0 | 7.0 | 0.00 | 0.00 | 0.00 | 57 | 1009.7 |
| 20260831043425 | 83 | 180 | 4.0 | 10.0 | 0.00 | 0.00 | 0.00 | 57 | 1009.7 |
| 20260831042403 | 83 | 180 | 5.0 | 8.0 | 0.00 | 0.00 | 0.00 | 58 | 1009.7 |
| 20260831041403 | 83 | 158 | 4.0 | 6.0 | 0.00 | 0.00 | 0.00 | 58 | 1009.7 |
| 20260831040403 | 83 | 135 | 4.0 | 10.0 | 0.00 | 0.00 | 0.00 | 59 | 1009.7 |
| 20260831035403 | 83 | 158 | 4.0 | 7.0 | 0.00 | 0.00 | 0.00 | 58 | 1009.9 |
| 20260831034424 | 83 | 135 | 3.0 | 6.0 | 0.00 | 0.00 | 0.00 | 59 | 1009.9 |
| 20260831033403 | 83 | 158 | 4.0 | 9.0 | 0.00 | 0.00 | 0.00 | 60 | 1009.8 |
| 20260831032403 | 82 | 158 | 2.0 | 4.0 | 0.00 | 0.00 | 0.00 | 61 | 1009.7 |
| 20260831031403 | 82 | 180 | 2.0 | 5.0 | 0.00 | 0.00 | 0.00 | 62 | 1009.6 |
| 20260831030423 | 82 | 135 | 2.0 | 3.0 | 0.00 | 0.00 | 0.00 | 63 | 1009.6 |
| 20260831025403 | 82 | 135 | 3.0 | 5.0 | 0.00 | 0.00 | 0.00 | 62 | 1009.5 |
| 20260831024423 | 82 | 158 | 3.0 | 5.0 | 0.00 | 0.00 | 0.00 | 62 | 1009.4 |
| 20260831023403 | 83 | 135 | 1.0 | 3.0 | 0.00 | 0.00 | 0.00 | 60 | 1009.4 |
| 20260831022403 | 84 | 135 | 3.0 | 5.0 | 0.00 | 0.00 | 0.00 | 60 | 1009.3 |
| 20260831021403 | 84 | 158 | 1.0 | 3.0 | 0.00 | 0.00 | 0.00 | 59 | 1009.2 |
| 20260831020403 | 85 | 158 | 2.0 | 4.0 | 0.00 | 0.00 | 0.00 | 58 | 1009.1 |
| 20260831015403 | 85 | 158 | 2.0 | 3.0 | 0.00 | 0.00 | 0.00 | 57 | 1009.0 |
| 20260831014403 | 85 | 158 | 2.0 | 4.0 | 0.00 | 0.00 | 0.00 | 57 | 1008.8 |
| 20260831013403 | 85 | 158 | 3.0 | 6.0 | 0.00 | 0.00 | 0.00 | 57 | 1008.7 |
| 20260831012403 | 86 | 158 | 3.0 | 4.0 | 0.00 | 0.00 | 0.00 | 56 | 1008.6 |
| 20260831011403 | 87 | 158 | 2.0 | 5.0 | 0.00 | 0.00 | 0.00 | 55 | 1008.6 |
| 20260831010403 | 88 | 158 | 1.0 | 3.0 | 0.00 | 0.00 | 0.00 | 54 | 1008.6 |
| 20260831005403 | 88 | 180 | 2.0 | 3.0 | 0.00 | 0.00 | 0.00 | 53 | 1008.4 |
| 20260831004403 | 89 | 203 | 2.0 | 3.0 | 0.00 | 0.00 | 0.00 | 53 | 1008.4 |
| 20260831003403 | 90 | 180 | 2.0 | 6.0 | 0.00 | 0.00 | 0.00 | 51 | 1008.5 |
| 20260831002403 | 91 | 113 | 1.0 | 3.0 | 0.00 | 0.00 | 0.00 | 51 | 1008.4 |
| 20260831001403 | 92 | 158 | 3.0 | 4.0 | 0.00 | 0.00 | 0.00 | 50 | 1008.4 |
| 20260831000403 | 93 | 180 | 3.0 | 6.0 | 0.00 | 0.00 | 0.00 | 47 | 1008.3 |
| 20260830235423 | 94 | 135 | 4.0 | 8.0 | 0.00 | 0.00 | 0.00 | 46 | 1008.2 |
| 20260830234403 | 94 | 158 | 5.0 | 8.0 | 0.00 | 0.00 | 0.00 | 46 | 1008.2 |
| 20260830233403 | 95 | 180 | 5.0 | 7.0 | 0.00 | 0.00 | 0.00 | 45 | 1008.2 |
| 20260830232403 | 96 | 158 | 4.0 | 6.0 | 0.00 | 0.00 | 0.00 | 44 | 1008.4 |
| 20260830231403 | 96 | 158 | 6.0 | 11.0 | 0.00 | 0.00 | 0.00 | 45 | 1008.3 |
| 20260830230403 | 96 | 180 | 6.0 | 8.0 | 0.00 | 0.00 | 0.00 | 45 | 1008.2 |
| 20260830225403 | 97 | 135 | 5.0 | 9.0 | 0.00 | 0.00 | 0.00 | 43 | 1008.2 |
| 20260830224423 | 97 | 180 | 6.0 | 23.0 | 0.00 | 0.00 | 0.00 | 42 | 1008.2 |
| 20260830223423 | 97 | 158 | 6.0 | 10.0 | 0.00 | 0.00 | 0.00 | 44 | 1008.2 |
| 20260830222403 | 97 | 158 | 7.0 | 11.0 | 0.00 | 0.00 | 0.00 | 42 | 1008.2 |
| 20260830221402 | 97 | 158 | 6.0 | 10.0 | 0.00 | 0.00 | 0.00 | 42 | 1008.2 |
| 20260830220423 | 97 | 180 | 9.0 | 15.0 | 0.00 | 0.00 | 0.00 | 43 | 1008.3 |
| 20260830215403 | 98 | 203 | 8.0 | 13.0 | 0.00 | 0.00 | 0.00 | 43 | 1008.3 |
| 20260830214403 | 98 | 135 | 7.0 | 12.0 | 0.00 | 0.00 | 0.00 | 42 | 1008.4 |
| 20260830213423 | 98 | 203 | 13.0 | 18.0 | 0.00 | 0.00 | 0.00 | 43 | 1008.6 |
| 20260830212423 | 98 | 180 | 6.0 | 10.0 | 0.00 | 0.00 | 0.00 | 43 | 1008.7 |
| 20260830211402 | 98 | 225 | 5.0 | 8.0 | 0.00 | 0.00 | 0.00 | 46 | 1008.7 |
| 20260830210403 | 98 | 180 | 11.0 | 16.0 | 0.00 | 0.00 | 0.00 | 44 | 1008.8 |
| 20260830205402 | 97 | 158 | 7.0 | 16.0 | 0.00 | 0.00 | 0.00 | 47 | 1009.0 |
| 20260830204402 | 98 | 180 | 11.0 | 17.0 | 0.00 | 0.00 | 0.00 | 44 | 1009.1 |
| 20260830203402 | 97 | 203 | 7.0 | 14.0 | 0.00 | 0.00 | 0.00 | 45 | 1009.2 |
| 20260830202403 | 97 | 203 | 11.0 | 16.0 | 0.00 | 0.00 | 0.00 | 44 | 1009.2 |
| 20260830201403 | 97 | 180 | 7.0 | 13.0 | 0.00 | 0.00 | 0.00 | 45 | 1009.5 |
| 20260830200402 | 97 | 180 | 11.0 | 17.0 | 0.00 | 0.00 | 0.00 | 46 | 1009.5 |
| 20260830195402 | 97 | 203 | 10.0 | 13.0 | 0.00 | 0.00 | 0.00 | 46 | 1009.6 |
| 20260830194402 | 96 | 180 | 7.0 | 12.0 | 0.00 | 0.00 | 0.00 | 48 | 1009.7 |
| 20260830193402 | 96 | 158 | 12.0 | 20.0 | 0.00 | 0.00 | 0.00 | 49 | 1009.9 |
| 20260830192402 | 96 | 158 | 8.0 | 13.0 | 0.00 | 0.00 | 0.00 | 48 | 1009.9 |
| 20260830191402 | 95 | 203 | 8.0 | 17.0 | 0.00 | 0.00 | 0.00 | 48 | 1010.1 |
| 20260830190404 | 95 | 180 | 9.0 | 12.0 | 0.00 | 0.00 | 0.00 | 50 | 1010.1 |
| 20260830185403 | 95 | 180 | 5.0 | 11.0 | 0.00 | 0.00 | 0.00 | 50 | 1010.1 |
| 20260830184402 | 94 | 180 | 10.0 | 16.0 | 0.00 | 0.00 | 0.00 | 50 | 1010.2 |
| 20260830183402 | 94 | 203 | 7.0 | 10.0 | 0.00 | 0.00 | 0.00 | 52 | 1010.3 |
| 20260830182402 | 94 | 203 | 5.0 | 11.0 | 0.00 | 0.00 | 0.00 | 53 | 1010.4 |
| 20260830181402 | 93 | 203 | 6.0 | 9.0 | 0.00 | 0.00 | 0.00 | 53 | 1010.4 |
| 20260830180402 | 92 | 180 | 8.0 | 13.0 | 0.00 | 0.00 | 0.00 | 53 | 1010.4 |
| 20260830175402 | 92 | 203 | 6.0 | 14.0 | 0.00 | 0.00 | 0.00 | 55 | 1010.5 |
| 20260830174402 | 92 | 225 | 13.0 | 20.0 | 0.00 | 0.00 | 0.00 | 54 | 1010.7 |
| 20260830173422 | 91 | 203 | 11.0 | 14.0 | 0.00 | 0.00 | 0.00 | 53 | 1010.7 |
| 20260830172422 | 91 | 180 | 11.0 | 14.0 | 0.00 | 0.00 | 0.00 | 54 | 1010.9 |
| 20260830171402 | 90 | 203 | 8.0 | 12.0 | 0.00 | 0.00 | 0.00 | 57 | 1011.0 |
| 20260830170402 | 89 | 180 | 8.0 | 12.0 | 0.00 | 0.00 | 0.00 | 56 | 1011.0 |
| 20260830165402 | 88 | 180 | 11.0 | 17.0 | 0.00 | 0.00 | 0.00 | 57 | 1011.2 |
| 20260830164402 | 87 | 203 | 4.0 | 10.0 | 0.00 | 0.00 | 0.00 | 60 | 1011.3 |
| 20260830163403 | 86 | 180 | 6.0 | 9.0 | 0.00 | 0.00 | 0.00 | 60 | 1011.2 |
| 20260830162402 | 86 | 180 | 10.0 | 15.0 | 0.00 | 0.00 | 0.00 | 59 | 1011.3 |
| 20260830161402 | 85 | 180 | 6.0 | 9.0 | 0.00 | 0.00 | 0.00 | 60 | 1011.2 |
| 20260830160402 | 84 | 203 | 10.0 | 14.0 | 0.00 | 0.00 | 0.00 | 61 | 1011.2 |
| 20260830155402 | 83 | 180 | 6.0 | 11.0 | 0.00 | 0.00 | 0.00 | 62 | 1011.1 |
| 20260830154402 | 83 | 180 | 6.0 | 12.0 | 0.00 | 0.00 | 0.00 | 62 | 1011.0 |
| 20260830153402 | 83 | 180 | 10.0 | 16.0 | 0.00 | 0.00 | 0.00 | 62 | 1010.9 |
| 20260830152402 | 83 | 203 | 8.0 | 10.0 | 0.00 | 0.00 | 0.00 | 62 | 1010.8 |
| 20260830151402 | 81 | 180 | 9.0 | 12.0 | 0.00 | 0.00 | 0.00 | 64 | 1010.7 |
| 20260830150402 | 81 | 180 | 8.0 | 13.0 | 0.00 | 0.00 | 0.00 | 65 | 1010.6 |
| 20260830145402 | 81 | 180 | 8.0 | 11.0 | 0.00 | 0.00 | 0.00 | 64 | 1010.6 |
| 20260830144402 | 81 | 203 | 8.0 | 10.0 | 0.00 | 0.00 | 0.00 | 66 | 1010.6 |
| 20260830143402 | 80 | 203 | 8.0 | 16.0 | 0.00 | 0.00 | 0.00 | 66 | 1010.8 |
| 20260830142442 | 80 | 203 | 7.0 | 14.0 | 0.00 | 0.00 | 0.00 | 65 | 1010.8 |
| 20260830141401 | 79 | 180 | 8.0 | 12.0 | 0.00 | 0.00 | 0.00 | 66 | 1010.8 |
| 20260830140401 | 79 | 180 | 7.0 | 12.0 | 0.00 | 0.00 | 0.00 | 67 | 1011.0 |
| 20260830135401 | 78 | 180 | 7.0 | 12.0 | 0.00 | 0.00 | 0.00 | 67 | 1010.9 |
| 20260830134402 | 78 | 180 | 6.0 | 12.0 | 0.00 | 0.00 | 0.00 | 67 | 1010.8 |
| 20260830133422 | 78 | 180 | 11.0 | 14.0 | 0.00 | 0.00 | 0.00 | 67 | 1010.8 |
| 20260830132422 | 77 | 158 | 9.0 | 17.0 | 0.00 | 0.00 | 0.00 | 67 | 1010.9 |
| 20260830131402 | 77 | 180 | 8.0 | 12.0 | 0.00 | 0.00 | 0.00 | 68 | 1010.9 |
| 20260830130401 | 76 | 180 | 9.0 | 15.0 | 0.00 | 0.00 | 0.00 | 68 | 1011.3 |
| 20260830125422 | 76 | 225 | 7.0 | 11.0 | 0.00 | 0.00 | 0.00 | 68 | 1011.4 |
| 20260830124402 | 76 | 203 | 7.0 | 11.0 | 0.00 | 0.00 | 0.00 | 68 | 1011.3 |
| 20260830123304 | 76 | 180 | 8.0 | 12.0 | 0.00 | 0.00 | 0.00 | 68 | 1011.4 |
| 20260830122344 | 75 | 180 | 8.0 | 12.0 | 0.00 | 0.00 | 0.00 | 68 | 1011.3 |
| 20260830121303 | 75 | 180 | 5.0 | 12.0 | 0.00 | 0.00 | 0.00 | 69 | 1011.4 |
| 20260830120304 | 75 | 158 | 6.0 | 11.0 | 0.00 | 0.00 | 0.00 | 68 | 1011.4 |
| 20260830115306 | 75 | 180 | 5.0 | 6.0 | 0.00 | 0.00 | 0.00 | 68 | 1011.5 |
| 20260830114304 | 76 | 180 | 7.0 | 12.0 | 0.00 | 0.00 | 0.00 | 68 | 1011.5 |
| 20260830113303 | 76 | 158 | 7.0 | 11.0 | 0.00 | 0.00 | 0.00 | 67 | 1011.4 |
| 20260830112306 | 76 | 158 | 6.0 | 11.0 | 0.00 | 0.00 | 0.00 | 67 | 1011.4 |
| 20260830111304 | 77 | 158 | 7.0 | 14.0 | 0.00 | 0.00 | 0.00 | 66 | 1011.4 |
| 20260830110303 | 77 | 180 | 8.0 | 17.0 | 0.00 | 0.00 | 0.00 | 66 | 1011.4 |
| 20260830105305 | 77 | 180 | 6.0 | 8.0 | 0.00 | 0.00 | 0.00 | 66 | 1011.4 |
| 20260830104303 | 77 | 203 | 8.0 | 12.0 | 0.00 | 0.00 | 0.00 | 66 | 1011.3 |
| 20260830103303 | 76 | 203 | 5.0 | 10.0 | 0.00 | 0.00 | 0.00 | 67 | 1011.3 |
| 20260830102323 | 76 | 203 | 7.0 | 11.0 | 0.00 | 0.00 | 0.00 | 67 | 1011.3 |
| 20260830101303 | 76 | 203 | 3.0 | 8.0 | 0.00 | 0.00 | 0.00 | 67 | 1011.3 |
| 20260830100303 | 76 | 180 | 4.0 | 7.0 | 0.00 | 0.00 | 0.00 | 67 | 1011.3 |
| 20260830095306 | 76 | 135 | 5.0 | 10.0 | 0.00 | 0.00 | 0.00 | 67 | 1011.3 |
| 20260830094303 | 76 | 180 | 9.0 | 12.0 | 0.00 | 0.00 | 0.00 | 67 | 1011.3 |
| 20260830093303 | 76 | 180 | 4.0 | 9.0 | 0.00 | 0.00 | 0.00 | 67 | 1011.2 |